Location: Caltech
(34.1382°N, 118.1253°W)
Time: 04:10:24
(UTC-07:00)

Iridium 59 - Visible Passes

Search period start: 24 May 2015 00:00
Search period end: 03 June 2015 00:00
Orbit: 776 x 779 km, 86.4° (Epoch: 23 May)

Date Brightness Start Highest point End Pass type
(mag) Time Alt. Az. Time Alt. Az. Time Alt. Az.
24 May 6.6 01:36:35 30° NNW 01:36:35 30° NNW 01:39:24 10° N visible
25 May 6.4 01:03:06 35° N 01:03:06 35° N 01:06:04 10° N visible
26 May 6.7 00:29:36 29° NE 00:29:36 29° NE 00:32:21 10° NNE visible
26 May 7.3 02:10:04 14° NW 02:10:04 14° NW 02:11:33 10° NW visible
26 May 7.1 23:56:06 19° NE 23:56:06 19° NE 23:58:08 10° NNE visible
27 May 6.8 01:36:33 24° NW 01:36:33 24° NW 01:39:11 10° NNW visible
27 May 7.5 23:22:35 10° ENE 23:22:35 10° ENE 23:22:44 10° ENE visible
28 May 6.4 01:03:03 35° NNW 01:03:03 35° NNW 01:06:06 10° N visible
29 May 6.4 00:29:32 36° NNE 00:29:32 36° NNE 00:32:37 10° N visible
29 May 6.7 23:56:00 26° NE 23:56:00 26° NE 23:58:43 10° NNE visible
30 May 7.1 01:36:28 18° NW 01:36:28 18° NW 01:38:43 10° NNW visible
30 May 7.2 23:22:29 16° ENE 23:22:29 16° ENE 23:24:13 10° NE visible
31 May 6.6 01:02:56 30° NW 01:02:56 30° NW 01:05:59 10° NNW visible
01 Jun 6.2 00:29:24 40° N 00:29:24 40° N 00:32:44 10° N visible
01 Jun 6.3 23:55:51 35° NE 23:55:51 35° NE 23:59:05 10° NNE visible
02 Jun 7.4 01:36:19 13° WNW 01:36:19 13° WNW 01:37:48 10° NW visible
02 Jun 6.7 23:22:18 23° NE 23:22:18 23° NE 23:25:00 10° NNE visible
